ARIANE 5 R/B, 40734

Orbit data source: Space-Track

ARIANE 5 R/B, 40734 is space debris in HEO originally from a launch on Wed, 15 Jul 2015 UTC launched from the French Guiana (FRGUI). Debris objects in space refer to the collection of defunct objects orbiting the Earth. Examples of debris include non-operational satellites, rocket bodies, and fragments generated from explosions, collisions, or faulty payload assembly.

Loading next visibility...
Identifier
40734, 2015-034C
Orbit
HEO
Country
Flag of FRFR
Related business
Manufacturer
Airbus Safran
Mission
Spacecraft
Bus & Motor
ESC-A, Unknown motor
Mass
~5,000 kg wet, ~5,000 kg dry
Launch date (UTC)
2015-07-15 (11 years ago)
Launch vehicle
Unknown
Launch site
French Guiana (FRGUI)
Object type
Payload
Rocket body
Debris
Shape & HBR
Cyl + 1 Nozzle, 3.5 m
Radar Cross Section
41.627 m², Large (>1 m²)

Expand to show TLE details & history
Last TLE update: 2 days ago

TLE from 2 days ago
0 ARIANE 5 R/B
1 40734U 15034C   26171.35192022  .00002628  00000-0  10158-2 0  9997
2 40734   3.7117 193.0664 7175299 295.3211   8.9150  2.40456248 92831
Epoch: 2026-06-20T08:26Z
TLE epoch observation values (Epoch: 2026-06-20T08:26:45.907Z)
Latitude
-0°
Longitude
158.14681°
Altitude
2,383.931 km
Speed
8.604 km/s
True Right ascension
12h 53m 37s
True Declination
0° 00' 00"
Sunlit
Object was in daylight at epoch
Visualization orbit readout
Latitude
Unknown
Longitude
Unknown
Altitude
Unknown
Speed
Unknown
Apparent Right ascension
Unknown
Apparent Declination
Unknown
Sunlit
N/A
Visualization observer readout
Local Sidereal Time
02:13:08
Azimuth
Unknown
Elevation
Unknown
Doppler factor
Unknown
Orbital elements
Apogee altitude
34,053.121 km
Perigee altitude
271.309 km
Semi-major axis
23,540.352 km
Eccentricity
0.71753
Inclination
3.7117°
RAAN
193.0664°
Arg. of periapsis
295.3211°
True anomaly
64.27478°
Mean anomaly
8.915°
Eccentric anomaly
28.5857°
Mean motion
0.60093 °/min
Orbital period
599.07 mins
BSTAR
0.0010158
Loading maneuver chart data...
Computing Atmospheric mass density...
Loading historical data...
Loading historical data...
Loading historical data...
Loading historical data...
Loading historical data...
Loading historical data...
Loading historical data...

Documentation

Showing up to 5 results
|